Temp
3 2 1 1 -0 -1 -1 -2 -2 -3 -3 -3 -4 -4 -4 -4 -4 -5 -5 -5 -5 -6
1 1 0 -1 -1 -1 -2 -3 -3 -3 -4 -4 -4 -4 -4 -4 -4 -5 -5 -6 -6 -6
0 -0 -1 -1 -2 -2 -3 -3 -4 -4 -4 -4 -4 -4 -5 -5 -5 -5 -6 -6 -6 -6
-1 -2 -2 -3 -3 -3 -4 -4 -4 -4 -5 -5 -5 -5 -5 -5 -5 -6 -6 -6 -6 -6
-2 -3 -3 -4 -4 -4 -5 -5 -5 -5 -5 -5 -5 -5 -6 -6 -6 -6 -6 -5 -6 -6
-4 -4 -4 -5 -5 -5 -5 -5 -5 -5 -5 -5 -6 -6 -6 -6 -6 -6 -6 -5 -6 -6
-4 -4 -4 -5 -5 -5 -6 -5 -5 -6 -6 -6 -6 -6 -6 -6 -6 -6 -5 -6 -6 -6
-5 -5 -5 -6 -5 -5 -6 -6 -6 -6 -6 -6 -6 -7 -7 -6 -5 -5 -5 -5 -5 -5
-6 -7 -8 -7 -7 -7 -7 -7 -7 -7 -7 -7 -7 -8 -6 -4 -5 -5 -5 -5 -5 -5
-8 -8 -8 -8 -8 -8 -8 -8 -7 -7 -7 -7 -7 -7 -5 -4 -5 -5 -5 -5 -5 -5
-9 -9 -9 -9 -9 -8 -8 -8 -8 -7 -7 -7 -7 -7 -6 -5 -5 -5 -5 -5 -5 -6
-9 -9 -9 -9 -9 -9 -8 -8 -8 -8 -7 -7 -6 -7 -6 -5 -5 -5 -5 -5 -6 -6
-10 -10 -10 -9 -9 -9 -9 -9 -8 -8 -7 -7 -7 -7 -6 -5 -5 -6 -5 -5 -5 -5
-10 -10 -10 -10 -9 -9 -9 -9 -8 -8 -7 -7 -7 -7 -6 -5 -5 -5 -5 -5 -6 -6
Height
797 802 806 810 813 815 818 821 822 823 824 824 824 824 823 822 822 821 820 820 820 818
797 801 805 809 812 815 818 820 821 822 823 823 823 822 822 821 819 817 817 817 816 814
797 801 804 808 812 814 817 819 820 821 821 821 821 820 819 818 817 816 815 813 811 809
798 803 806 809 811 814 816 818 819 819 819 818 818 817 816 816 815 813 811 810 807 805
798 804 808 810 813 814 816 817 817 817 817 816 815 815 815 813 812 810 808 806 803 801
795 801 807 811 813 814 815 815 815 814 813 813 814 813 812 810 809 807 804 803 800 798
797 800 804 807 810 813 813 812 813 813 812 812 811 810 809 808 805 803 801 798 797 794
798 801 804 805 806 809 811 811 811 812 810 810 809 807 806 804 802 799 796 794 792 789
799 803 804 806 806 808 809 809 809 810 808 807 806 804 803 800 797 795 794 791 787 785
800 802 804 806 807 808 808 808 807 808 805 804 802 801 800 797 794 792 790 788 783 779
799 801 803 805 806 806 806 805 805 803 802 801 799 798 796 793 791 789 786 782 778 774
800 800 800 802 803 805 805 805 803 802 801 798 796 794 792 790 788 784 779 776 772 768
801 802 802 801 801 801 803 802 802 801 800 797 794 791 789 786 782 781 775 768 766 762
800 800 801 801 801 800 800 801 800 799 798 794 791 787 786 784 781 776 769 765 761 756
Wind_Speed
24 23 19 16 14 11 9 7 5 3 3 3 3 4 5 6 6 6 7 8 10 10
22 20 18 15 12 10 8 6 5 4 3 4 4 5 6 7 7 8 9 10 11 10
21 19 17 14 12 10 8 6 5 4 4 5 5 6 7 8 9 10 9 10 11 12
18 16 13 11 9 7 6 5 4 4 5 5 6 6 8 9 9 11 11 10 12 15
17 13 10 8 6 4 4 3 4 5 5 6 7 8 9 10 10 11 12 14 16 19
18 14 9 6 4 2 2 3 4 6 7 7 8 9 10 9 10 12 14 17 19 21
16 13 10 7 3 1 3 4 6 7 7 8 9 10 7 10 13 15 17 18 19 22
13 10 7 6 4 3 4 5 6 7 7 8 9 7 10 13 16 17 19 22 23 25
12 8 5 3 2 3 4 5 5 7 7 7 9 9 10 12 15 17 19 24 27 27
8 5 3 2 2 3 4 4 5 6 7 9 11 8 12 13 15 17 21 25 27 28
6 4 3 2 3 3 4 5 6 5 8 10 10 10 13 13 15 18 21 26 28 27
4 4 3 2 3 3 5 6 5 7 9 11 11 11 11 15 17 20 25 28 26 24
1 2 3 3 2 3 5 5 7 9 9 11 12 13 13 16 18 22 28 21 24 23
3 3 2 3 4 3 4 6 6 8 10 12 14 15 15 16 19 24 20 24 24 25
Wind_Direction
188 184 179 178 177 178 181 185 199 216 262 270 292 300 306 309 308 310 313 305 293 291
174 174 171 170 173 177 181 191 206 239 253 275 290 297 299 301 311 311 305 300 299 299
168 169 169 170 172 179 188 203 224 241 260 278 291 299 304 310 311 301 304 306 305 306
160 161 163 166 170 179 194 212 230 252 278 293 302 307 305 300 303 299 301 304 309 312
154 154 155 157 164 180 202 227 259 281 292 300 304 296 293 296 296 297 306 316 317 314
149 149 149 152 165 193 231 270 281 290 301 304 300 298 295 295 303 307 313 316 315 314
146 147 150 151 154 251 279 297 302 300 299 301 300 297 292 307 311 313 313 316 312 307
134 135 132 139 182 238 271 281 297 296 299 303 304 293 302 310 310 312 316 316 313 310
129 149 155 196 232 271 275 287 294 299 307 315 312 300 307 312 309 315 316 315 314 311
142 140 176 215 242 262 285 296 305 304 327 330 329 319 317 315 316 316 312 309 307 304
142 159 194 238 274 300 308 309 307 321 338 337 339 325 322 318 313 314 313 312 310 301
173 178 189 231 285 299 303 313 323 325 329 339 344 334 327 321 322 317 317 315 311 311
224 244 253 238 238 283 309 319 324 325 333 342 340 349 336 331 327 319 313 315 315 311
227 252 250 284 299 292 306 305 324 334 345 352 357 345 336 332 330 320 322 324 317 314